EW5544 Weather Reports


time (UTC)temp
C
wind
direction
speed
KPH
gust
KPH
rain 1hr
cm
rain 24hr
cm
rain mn
cm
humidity
%
barometer
mb
20260503211504 13 133 0.0 8.0 0.00 0.00 0.00 78 1017.8
20260503210005 14 122 4.8 14.5 0.00 0.00 0.00 77 1017.6
20260503204504 14 123 6.4 11.3 0.00 0.00 0.00 76 1017.5
20260503203004 14 136 4.8 12.9 0.00 0.00 0.00 73 1017.4
20260503201503 15 150 4.8 11.3 0.00 0.00 0.00 69 1017.3
20260503200003 15 112 3.2 9.7 0.00 0.00 0.00 64 1017.2
20260503194502 16 167 1.6 9.7 0.00 0.00 0.00 62 1017.2
20260503193009 16 151 3.2 9.7 0.00 0.00 0.00 62 1017.1
20260503191503 16 194 4.8 11.3 0.00 0.00 0.00 62 1017.0
20260503190003 16 114 4.8 9.7 0.00 0.00 0.00 64 1016.8
20260503184503 16 133 3.2 6.4 0.00 0.00 0.00 64 1016.7
20260503183102 17 166 3.2 8.0 0.00 0.00 0.00 62 1016.5
20260503181602 17 146 4.8 14.5 0.00 0.00 0.00 61 1016.5
20260503180058 18 198 4.8 9.7 0.00 0.00 0.00 60 1016.4
20260503174616 18 163 1.6 8.0 0.00 0.00 0.00 60 1016.4
20260503173103 19 205 4.8 8.0 0.00 0.00 0.00 58 1016.3
20260503171558 20 297 0.0 4.8 0.00 0.00 0.00 53 1016.1
20260503081606 18 162 1.6 4.8 0.00 0.00 0.00 63 1019.7
20260503071547 15 38 4.8 8.0 0.00 0.00 0.00 70 1020.0
20260503054532 12 131 0.0 3.2 0.00 0.00 0.00 83 1020.2
20260503053024 11 131 0.0 4.8 0.00 0.00 0.00 84 1020.0
20260503051524 11 119 3.2 6.4 0.00 0.00 0.00 85 1019.9
20260503050025 10 114 3.2 6.4 0.00 0.00 0.00 87 1019.9
20260503044522 10 95 3.2 9.7 0.00 0.00 0.00 86 1019.9
20260503041553 10 82 3.2 9.7 0.00 0.00 0.00 87 1019.7
20260503040059 10 126 3.2 6.4 0.00 0.00 0.00 87 1019.7
20260503034603 10 105 1.6 4.8 0.00 0.00 0.00 85 1019.7
20260503033053 10 98 3.2 6.4 0.00 0.00 0.00 85 1019.7
20260503031548 10 105 3.2 9.7 0.00 0.00 0.00 84 1019.6
20260503024551 10 110 3.2 6.4 0.00 0.00 0.00 83 1019.7
20260503023047 10 108 3.2 9.7 0.00 0.00 0.00 82 1019.6
20260503021545 10 105 4.8 6.4 0.00 0.00 0.00 81 1019.7
20260503014542 10 111 3.2 6.4 0.00 0.00 0.00 79 1019.8
20260503013040 10 97 1.6 6.4 0.00 0.00 0.00 77 1019.9
20260503011538 11 122 4.8 9.7 0.00 0.00 0.00 76 1020.0
20260503004541 11 101 4.8 9.7 0.00 0.00 0.00 73 1020.1
20260503003049 11 88 4.8 11.3 0.00 0.00 0.00 72 1020.3
20260503001558 11 126 4.8 9.7 0.00 0.00 0.00 72 1020.4
20260502234536 11 121 6.4 11.3 0.00 0.00 0.00 70 1020.5
20260502233033 12 100 6.4 11.3 0.00 0.00 0.00 69 1020.7
20260502231531 12 104 3.2 9.7 0.00 0.00 0.00 69 1020.8
20260502224527 11 103 1.6 4.8 0.00 0.00 0.00 69 1020.9
20260502223027 12 123 3.2 6.4 0.00 0.00 0.00 67 1021.0
20260502221527 12 126 3.2 6.4 0.00 0.00 0.00 65 1021.0
20260502214524 11 132 1.6 4.8 0.00 0.00 0.00 66 1020.9
20260502213024 12 86 1.6 3.2 0.00 0.00 0.00 63 1020.8